This is the latest recevied weather packets stored in our database for station/object KF0DL. If no packets are shown the sender has not sent any weather packets the latest 10 day(s).
| Time | Temp. | Humidity | Pressure | Rain* | Wind** | Luminosity | Snow |
|---|---|---|---|---|---|---|---|
| 1777888999 | 8.33° C | 46% | 1007.3 hPa | 0 mm | - | - | - |
| 1777888709 | 8.33° C | 46% | 1007.3 hPa | 0 mm | - | - | - |
| 1777888414 | 8.33° C | 46% | 1007 hPa | 0 mm | - | - | - |
| 1777888100 | 8.89° C | 46% | 1007 hPa | 0 mm | - | - | - |
| 1777887808 | 8.89° C | 47% | 1007 hPa | 0 mm | - | - | - |
| 1777887514 | 8.89° C | 49% | 1006.7 hPa | 0 mm | - | - | - |
| 1777887201 | 8.89° C | 53% | 1006.7 hPa | 0 mm | - | - | - |
| 1777886908 | 8.33° C | 55% | 1006.7 hPa | 0 mm | - | - | - |
| 1777886598 | 8.89° C | 57% | 1006.4 hPa | 0 mm | - | - | - |
| 1777886308 | 8.89° C | 58% | 1006.4 hPa | 0 mm | - | - | - |
| 1777886016 | 8.89° C | 58% | 1006.4 hPa | 0 mm | - | - | - |
| 1777885703 | 8.89° C | 58% | 1006.3 hPa | 0 mm | - | - | - |
| 1777885409 | 8.33° C | 58% | 1006.3 hPa | 0 mm | - | - | - |
| 1777885117 | 8.33° C | 61% | 1006.3 hPa | 0 mm | - | - | - |
| 1777884805 | 8.33° C | 63% | 1006.1 hPa | 0 mm | - | - | - |
| 1777884512 | 8.33° C | 63% | 1006.1 hPa | 0 mm | - | - | - |
| 1777884198 | 8.33° C | 63% | 1005.7 hPa | 0 mm | - | - | - |
| 1777883911 | 8.33° C | 64% | 1005.7 hPa | 0 mm | - | - | - |
| 1777883618 | 8.33° C | 64% | 1005.7 hPa | 0 mm | - | - | - |
| 1777883305 | 8.33° C | 65% | 1005.7 hPa | 0 mm | - | - | - |
| 1777883012 | 8.33° C | 65% | 1005.7 hPa | 0 mm | - | - | - |
| 1777882718 | 8.89° C | 65% | 1005.7 hPa | 0 mm | - | - | - |
| 1777882406 | 8.89° C | 65% | 1005.7 hPa | 0 mm | - | - | - |
| 1777882113 | 8.89° C | 65% | 1005.7 hPa | 0 mm | - | - | - |
| 1777881799 | 8.89° C | 64% | 1005.7 hPa | 0 mm | - | - | - |
* Rain latest hour (hover to see other rain measurements)
** Current wind speed in m/s (hover to see current wind gust speed)